Location: Lombard
(41.8800°N, 88.0080°W)
Time: 13:07:26
(UTC-05:00)

A-11 Canister half - Pass Details

Date: 31 January 2023
Orbit: 1512 x 1687 km, 47.2° (Epoch: 20 March)

Event Time Altitude Azimuth Distance (km) Brightness Sun altitude
Rises 13:26:34 0° 262° (W) 4,799 12.0 27.9°
Reaches altitude 10° 13:29:45 10° 265° (W) 3,791 11.5 27.7°
Maximum altitude 13:39:18 68° 348° (NNW) 1,645 9.4 27.0°
Drops below altitude 10° 13:48:35 10° 72° (ENE) 3,685 10.7 26.2°
Sets 13:51:38 0° 75° (ENE) 4,659 11.2 26.0°
